Regional Weather Roundup
Issued by NWS

Home | Current Version | Previous Version | Text Only | Print | Product List | Glossary Off
Versions: 1 2 3 4 5 6 7 8 9 10 11 12 13 14 15 16 17 18 19 20 21 22 23 24 25 26 27 28 29 30 31 32 33 34 35 36 37 38 39 40 41 42 43 44 45 46 47 48 49 50

000
ASUS45 KSLC 030210
RWRUT

UTAH REGIONAL WEATHER ROUNDUP
NATIONAL WEATHER SERVICE SALT LAKE CITY UT
700 PM MST MON MAR 02 2015

UTZ001>011-023>025-030300-

NORTHERN UTAH

CITY           SKY/WX    TMP DP  RH WIND       PRES   REMARKS
BRIGHAM CITY   CLOUDY    33  32  96 CALM      29.68R VSB 1
HILL AFB       SNOW      33  33 100 NW5       29.66R VSB 1/2 WCI  29
LOGAN          SNOW      33  31  92 CALM      29.66R VSB 1/2
OGDEN          LGT SNOW  33  33 100 NW5       29.67R FOG     WCI  29
PROVO AIRPORT  CLOUDY    37  34  87 S12       29.68R WCI  30
SALT LAKE CITY LGT RAIN  34  33  96 W13       29.63R FOG     WCI  25
VERNAL         FOG       32  32 100 CALM      29.64S VSB 1/4
WENDOVER       MOCLDY    36  30  80 S6        29.72R WCI  31
HEBER CITY     FLURRIES  34  32  93 W6        29.63R WCI  29
WEST JORDAN    CLOUDY    34  34 100 NW9       29.67R WCI  26

$$

UTZ012>022-026-027-030300-

SOUTHERN/CENTRAL UTAH

CITY           SKY/WX    TMP DP  RH WIND       PRES   REMARKS
BLANDING       CLOUDY    34  34 100 S8        29.90R WCI  27
BRYCE CANYON   LGT SNOW  26  24  92 SE3       29.80R FOG
CEDAR CITY     LGT SNOW  32  30  92 SW17      29.82R VSB 1   WCI  21
DELTA          CLOUDY    36  33  90 S20G25    29.72R WCI  25
HANKSVILLE     CLEAR     43  30  61 SW22G32   29.73R
MILFORD        MOCLDY    35  30  82 S17       29.75R WCI  25
MOAB/CYNLANDS  CLEAR     41  33  73 SW13      29.70R
PRICE          LGT SNOW  33  31  92 CALM      29.66R FOG
ST GEORGE      CLOUDY    43  36  75 NW6       29.89R
KANAB          MOCLDY    36  32  87 S8        29.88R WCI  29

$$

REGIONAL REPORTS     COLORADO/ARIZONA

CITY           SKY/WX    TMP DP  RH WIND       PRES   REMARKS
CRAIG, CO      LGT RAIN  33  31  92 SW3       29.65R
GRAND JUNCTION CLOUDY    40  34  79 E7        29.69F
RIFLE          LGT RAIN  38  33  82 W24G33    29.70R WCI  27
MONTROSE       NOT AVBL
CORTEZ         CLOUDY    35  33  92 S17       29.89R WCI  25
PAGE, AZ       PTCLDY    45  32  60 SW5       29.81R
GRAND CANYON   CLOUDY    30  29  96 SW7       29.89R WCI  23
KINGMAN        MOCLDY    44  37  76 S10       29.89R
FLAGSTAFF      MOCLDY    30  25  81 SW17      29.91R WCI  18

$$

REGIONAL REPORTS    NEVADA/IDAHO/WYOMING

CITY           SKY/WX    TMP DP  RH WIND       PRES   REMARKS
LAS VEGAS, NV  LGT RAIN  53  40  61 NW9       29.82R
ELY            FOG       24  24 100 CALM      29.76R VSB 1/2
ELKO           PTCLDY    35  26  69 W3        29.72R
POCATELLO, ID  CLEAR     35  23  61 S6        29.64R WCI  30
BURLEY         PTCLDY    40  13  33 W13       29.64R WCI  32
EVANSTON, WY   LGT SNOW  29  28  96 W13       29.58S VSB 1   WCI  19
ROCK SPRINGS   CLOUDY    28  26  92 S9        29.57F WCI  19
KEMMERER       LGT SNOW  30  28  93 SE6       29.58R WCI  24

$$


USA.gov is the U.S. government's official web portal to all federal, state and local government web resources and services.